Time,TemperatureF,DewpointF,PressureIn,WindDirection,WindDirectionDegrees,WindSpeedMPH,WindSpeedGustMPH,Humidity,HourlyPrecipIn,Conditions,Clouds,dailyrainin,SoftwareType,DateUTC
2013-08-29 00:08:00,73.0,67.0,-100.00,North,10,2.0,3.0,82,0.00,,,0.00,,2013-08-29 04:08:00,
2013-08-29 00:18:00,73.0,67.0,-100.00,North,10,2.0,3.0,82,0.00,,,0.00,,2013-08-29 04:18:00,
2013-08-29 00:28:00,73.0,67.0,-100.00,North,10,2.0,3.0,82,0.00,,,0.00,,2013-08-29 04:28:00,
2013-08-29 00:46:00,73.0,68.0,-100.00,NE,56,0.0,2.0,83,0.00,,,0.00,,2013-08-29 04:46:00,
2013-08-29 00:54:00,73.0,68.0,-100.00,NE,56,0.0,2.0,83,0.00,,,0.00,,2013-08-29 04:54:00,
2013-08-29 01:14:00,72.0,68.0,-100.00,North,0,2.0,4.0,87,0.00,,,0.01,,2013-08-29 05:14:00,
2013-08-29 01:23:00,72.0,68.0,-100.00,North,1,1.0,3.0,88,0.00,,,0.01,,2013-08-29 05:23:00,
2013-08-29 01:42:00,72.0,68.0,-100.00,North,0,2.0,4.0,86,0.00,,,0.01,,2013-08-29 05:42:00,
2013-08-29 01:52:00,72.0,68.0,-100.00,North,0,2.0,4.0,86,0.00,,,0.01,,2013-08-29 05:52:00,
2013-08-29 02:13:00,73.0,68.0,-100.00,WSW,243,3.0,3.0,82,0.00,,,0.01,,2013-08-29 06:13:00,
2013-08-29 02:22:00,73.0,68.0,-100.00,NW,311,1.0,2.0,83,0.00,,,0.01,,2013-08-29 06:22:00,
2013-08-29 02:43:00,73.0,68.0,-100.00,West,280,1.0,2.0,83,0.00,,,0.01,,2013-08-29 06:43:00,
2013-08-29 02:52:00,73.0,68.0,-100.00,NNW,343,0.0,1.0,83,0.00,,,0.01,,2013-08-29 06:52:00,
2013-08-29 03:12:00,73.0,67.0,-100.00,East,92,0.0,3.0,82,0.00,,,0.01,,2013-08-29 07:12:00,
2013-08-29 03:22:00,74.0,67.0,-100.00,NW,305,0.0,1.0,80,0.00,,,0.01,,2013-08-29 07:22:00,
2013-08-29 03:42:00,73.0,67.0,-100.00,ENE,72,0.0,2.0,80,0.00,,,0.01,,2013-08-29 07:42:00,
2013-08-29 03:53:00,73.0,67.0,-100.00,NW,318,1.0,2.0,81,0.00,,,0.01,,2013-08-29 07:53:00,
2013-08-29 04:12:00,73.0,67.0,-100.00,NW,312,2.0,3.0,81,0.00,,,0.01,,2013-08-29 08:12:00,
2013-08-29 04:22:00,73.0,67.0,-100.00,ENE,73,1.0,2.0,83,0.00,,,0.01,,2013-08-29 08:22:00,
2013-08-29 04:42:00,72.0,67.0,-100.00,North,357,2.0,4.0,84,0.00,,,0.01,,2013-08-29 08:42:00,
2013-08-29 04:52:00,72.0,67.0,-100.00,NE,40,1.0,2.0,84,0.00,,,0.01,,2013-08-29 08:52:00,
2013-08-29 05:12:00,73.0,67.0,-100.00,North,350,1.0,2.0,83,0.00,,,0.01,,2013-08-29 09:12:00,
2013-08-29 05:22:00,73.0,67.0,-100.00,West,278,0.0,1.0,84,0.00,,,0.01,,2013-08-29 09:22:00,
2013-08-29 05:43:00,73.0,67.0,-100.00,NNE,30,1.0,2.0,83,0.00,,,0.01,,2013-08-29 09:43:00,
2013-08-29 05:55:00,73.0,67.0,-100.00,ENE,59,2.0,3.0,83,0.00,,,0.01,,2013-08-29 09:55:00,
2013-08-29 06:24:00,72.0,68.0,-100.00,ENE,66,1.0,2.0,84,0.00,,,0.01,,2013-08-29 10:24:00,
2013-08-29 06:33:00,72.0,68.0,-100.00,ENE,66,1.0,2.0,84,0.00,,,0.01,,2013-08-29 10:33:00,
2013-08-29 06:43:00,72.0,68.0,-100.00,ENE,66,1.0,2.0,84,0.00,,,0.01,,2013-08-29 10:43:00,
2013-08-29 06:53:00,72.0,68.0,-100.00,WNW,295,1.0,2.0,85,0.00,,,0.01,,2013-08-29 10:53:00,
2013-08-29 07:12:00,72.0,68.0,-100.00,NE,35,0.0,2.0,85,0.00,,,0.01,,2013-08-29 11:12:00,
2013-08-29 07:22:00,72.0,68.0,-100.00,WNW,302,1.0,2.0,86,0.00,,,0.01,,2013-08-29 11:22:00,
2013-08-29 07:42:00,72.0,68.0,-100.00,North,350,0.0,1.0,85,0.00,,,0.01,,2013-08-29 11:42:00,
2013-08-29 07:52:00,71.0,68.0,-100.00,SW,230,0.0,1.0,89,0.00,,,0.01,,2013-08-29 11:52:00,
2013-08-29 08:12:00,71.0,68.0,-100.00,East,96,0.0,1.0,90,0.00,,,0.01,,2013-08-29 12:12:00,
2013-08-29 08:22:00,72.0,68.0,-100.00,NNW,347,1.0,2.0,88,0.00,,,0.01,,2013-08-29 12:22:00,
2013-08-29 08:42:00,72.0,68.0,-100.00,WNW,295,2.0,3.0,87,0.00,,,0.01,,2013-08-29 12:42:00,
2013-08-29 08:52:00,72.0,68.0,-100.00,SW,232,0.0,0.0,88,0.00,,,0.01,,2013-08-29 12:52:00,
2013-08-29 09:12:00,72.0,69.0,-100.00,WSW,246,1.0,2.0,90,0.00,,,0.01,,2013-08-29 13:12:00,
2013-08-29 09:22:00,72.0,69.0,-100.00,SW,227,0.0,1.0,91,0.00,,,0.01,,2013-08-29 13:22:00,
2013-08-29 09:42:00,71.0,69.0,-100.00,SSW,199,0.0,1.0,93,0.00,,,0.01,,2013-08-29 13:42:00,
2013-08-29 09:52:00,72.0,69.0,-100.00,SSW,206,0.0,1.0,93,0.00,,,0.01,,2013-08-29 13:52:00,
2013-08-29 10:11:00,72.0,69.0,-100.00,ESE,120,0.0,0.0,91,0.00,,,0.01,,2013-08-29 14:11:00,
2013-08-29 10:22:00,73.0,70.0,-100.00,West,274,0.0,0.0,90,0.00,,,0.01,,2013-08-29 14:22:00,
2013-08-29 10:42:00,74.0,70.0,-100.00,South,185,1.0,2.0,89,0.00,,,0.01,,2013-08-29 14:42:00,
2013-08-29 10:52:00,74.0,70.0,-100.00,South,178,1.0,1.0,86,0.00,,,0.01,,2013-08-29 14:52:00,
2013-08-29 11:12:00,74.0,69.0,-100.00,SW,227,1.0,3.0,85,0.00,,,0.01,,2013-08-29 15:12:00,
2013-08-29 11:22:00,76.0,69.0,-100.00,SW,222,2.0,2.0,77,0.00,,,0.01,,2013-08-29 15:22:00,
2013-08-29 11:43:00,76.0,69.0,-100.00,West,261,2.0,4.0,77,0.00,,,0.01,,2013-08-29 15:43:00,
2013-08-29 11:53:00,76.0,70.0,-100.00,SE,126,1.0,2.0,81,0.00,,,0.01,,2013-08-29 15:53:00,
2013-08-29 12:13:00,78.0,69.0,-100.00,SW,216,1.0,2.0,74,0.00,,,0.01,,2013-08-29 16:13:00,
2013-08-29 12:24:00,78.0,69.0,-100.00,SW,216,1.0,2.0,74,0.00,,,0.01,,2013-08-29 16:24:00,
2013-08-29 12:43:00,78.0,69.0,-100.00,WSW,248,3.0,4.0,74,0.00,,,0.01,,2013-08-29 16:43:00,
2013-08-29 12:54:00,80.0,69.0,-100.00,West,260,3.0,5.0,70,0.00,,,0.01,,2013-08-29 16:54:00,
2013-08-29 13:13:00,80.0,68.0,-100.00,SE,134,2.0,3.0,68,0.00,,,0.01,,2013-08-29 17:13:00,
2013-08-29 13:23:00,80.0,70.0,-100.00,SSW,206,2.0,4.0,71,0.00,,,0.01,,2013-08-29 17:23:00,
2013-08-29 13:44:00,81.0,69.0,-100.00,SE,130,2.0,4.0,67,0.00,,,0.01,,2013-08-29 17:44:00,
2013-08-29 13:53:00,81.0,68.0,-100.00,NE,56,2.0,4.0,63,0.00,,,0.01,,2013-08-29 17:53:00,
2013-08-29 14:12:00,84.0,66.0,-100.00,East,85,2.0,4.0,54,0.00,,,0.01,,2013-08-29 18:12:00,
2013-08-29 14:22:00,87.0,67.0,-100.00,SW,217,2.0,4.0,52,0.00,,,0.01,,2013-08-29 18:22:00,
2013-08-29 14:42:00,85.0,67.0,-100.00,SW,220,4.0,7.0,55,0.00,,,0.01,,2013-08-29 18:42:00,
2013-08-29 14:52:00,85.0,67.0,-100.00,SW,220,4.0,7.0,55,0.00,,,0.01,,2013-08-29 18:52:00,
2013-08-29 15:11:00,87.0,62.0,-100.00,WSW,244,2.0,5.0,44,0.00,,,0.01,,2013-08-29 19:11:00,
2013-08-29 15:22:00,84.0,63.0,-100.00,SSW,212,2.0,3.0,49,0.00,,,0.01,,2013-08-29 19:22:00,
2013-08-29 15:42:00,85.0,61.0,-100.00,NE,42,4.0,6.0,44,0.00,,,0.01,,2013-08-29 19:42:00,
2013-08-29 16:13:00,83.0,63.0,-100.00,SE,126,2.0,4.0,51,0.00,,,0.01,,2013-08-29 20:13:00,
2013-08-29 16:22:00,82.0,64.0,-100.00,ENE,68,4.0,6.0,54,0.00,,,0.01,,2013-08-29 20:22:00,
2013-08-29 16:42:00,85.0,65.0,-100.00,SE,141,2.0,5.0,51,0.00,,,0.01,,2013-08-29 20:42:00,
2013-08-29 16:52:00,84.0,67.0,-100.00,SSE,152,1.0,3.0,57,0.00,,,0.01,,2013-08-29 20:52:00,
2013-08-29 17:12:00,83.0,68.0,-100.00,SE,137,3.0,6.0,60,0.00,,,0.01,,2013-08-29 21:12:00,
2013-08-29 17:22:00,82.0,68.0,-100.00,SSE,165,2.0,4.0,63,0.00,,,0.01,,2013-08-29 21:22:00,
2013-08-29 17:44:00,80.0,66.0,-100.00,ESE,103,3.0,5.0,63,0.00,,,0.01,,2013-08-29 21:44:00,
2013-08-29 17:54:00,78.0,66.0,-100.00,ESE,112,2.0,5.0,66,0.00,,,0.01,,2013-08-29 21:54:00,
2013-08-29 18:14:00,79.0,67.0,-100.00,ESE,112,4.0,7.0,66,0.00,,,0.01,,2013-08-29 22:14:00,
2013-08-29 18:24:00,79.0,67.0,-100.00,ESE,113,3.0,8.0,66,0.00,,,0.01,,2013-08-29 22:24:00,
2013-08-29 18:43:00,78.0,67.0,-100.00,ESE,119,2.0,3.0,69,0.00,,,0.01,,2013-08-29 22:43:00,
2013-08-29 18:53:00,77.0,67.0,-100.00,East,95,2.0,4.0,70,0.00,,,0.01,,2013-08-29 22:53:00,
2013-08-29 19:13:00,78.0,67.0,-100.00,ENE,64,3.0,5.0,69,0.00,,,0.01,,2013-08-29 23:13:00,
2013-08-29 19:22:00,77.0,65.0,-100.00,ENE,72,5.0,6.0,67,0.00,,,0.01,,2013-08-29 23:22:00,
2013-08-29 19:43:00,76.0,66.0,-100.00,East,79,4.0,7.0,69,0.00,,,0.01,,2013-08-29 23:43:00,
2013-08-29 19:53:00,76.0,66.0,-100.00,East,79,4.0,7.0,69,0.00,,,0.01,,2013-08-29 23:53:00,
2013-08-29 20:12:00,76.0,66.0,-100.00,East,79,4.0,6.0,73,0.00,,,0.01,,2013-08-30 00:12:00,
2013-08-29 20:22:00,75.0,66.0,-100.00,ENE,68,5.0,6.0,74,0.00,,,0.01,,2013-08-30 00:22:00,
2013-08-29 20:42:00,75.0,66.0,-100.00,ENE,76,4.0,5.0,74,0.00,,,0.01,,2013-08-30 00:42:00,
2013-08-29 20:52:00,74.0,67.0,-100.00,NNE,24,4.0,5.0,80,0.00,,,0.01,,2013-08-30 00:52:00,
2013-08-29 21:12:00,74.0,67.0,-100.00,NE,56,2.0,3.0,79,0.00,,,0.01,,2013-08-30 01:12:00,
2013-08-29 21:22:00,74.0,67.0,-100.00,NE,44,2.0,3.0,78,0.00,,,0.01,,2013-08-30 01:22:00,
2013-08-29 21:42:00,74.0,66.0,-100.00,ENE,59,4.0,5.0,77,0.00,,,0.01,,2013-08-30 01:42:00,
2013-08-29 21:52:00,74.0,67.0,-100.00,ENE,65,3.0,4.0,79,0.00,,,0.01,,2013-08-30 01:52:00,
2013-08-29 22:11:00,73.0,67.0,-100.00,NNE,25,1.0,3.0,80,0.00,,,0.01,,2013-08-30 02:11:00,
2013-08-29 22:22:00,73.0,67.0,-100.00,NNE,31,2.0,4.0,81,0.00,,,0.01,,2013-08-30 02:22:00,
2013-08-29 22:42:00,73.0,67.0,-100.00,ENE,69,2.0,4.0,82,0.00,,,0.01,,2013-08-30 02:42:00,
2013-08-29 22:52:00,72.0,67.0,-100.00,ENE,64,3.0,5.0,84,0.00,,,0.01,,2013-08-30 02:52:00,
2013-08-29 23:12:00,72.0,67.0,-100.00,NE,52,4.0,7.0,85,0.00,,,0.01,,2013-08-30 03:12:00,
2013-08-29 23:22:00,72.0,67.0,-100.00,NE,37,3.0,6.0,85,0.00,,,0.01,,2013-08-30 03:22:00,
2013-08-29 23:43:00,72.0,67.0,-100.00,NE,48,4.0,8.0,85,0.00,,,0.01,,2013-08-30 03:43:00,
2013-08-29 23:55:00,72.0,67.0,-100.00,NE,38,3.0,6.0,85,0.00,,,0.01,,2013-08-30 03:55:00,